Total_Precipitation_Accumulation
0.05 0.10 0.16 0.19 0.15 0.13 0.10 0.10 0.12 0.14 0.23 0.30 0.40 0.40 0.34 0.33 0.36 0.30 0.32 0.30 0.29 0.33 0.25 0.22 0.23 0.23 0.24 0.26 0.31 0.33 0.40 0.48 0.55 0.64 0.69 0.76 0.88 0.93 0.99 1.01 0.98 1.07 1.16 1.18
0.06 0.10 0.12 0.13 0.16 0.12 0.08 0.07 0.08 0.11 0.20 0.30 0.35 0.41 0.39 0.33 0.31 0.35 0.40 0.34 0.35 0.39 0.36 0.33 0.33 0.32 0.26 0.30 0.38 0.46 0.55 0.59 0.62 0.69 0.76 0.77 0.81 0.84 0.95 1.01 1.07 1.19 1.27 1.29
0.15 0.15 0.15 0.16 0.15 0.11 0.09 0.10 0.11 0.12 0.19 0.27 0.39 0.44 0.46 0.45 0.40 0.42 0.51 0.50 0.59 0.65 0.56 0.47 0.41 0.38 0.37 0.43 0.49 0.55 0.64 0.76 0.82 0.85 0.89 0.91 0.94 0.95 1.01 1.16 1.25 1.27 1.28 1.30
0.21 0.24 0.28 0.18 0.14 0.13 0.11 0.13 0.14 0.18 0.26 0.33 0.46 0.50 0.54 0.62 0.60 0.54 0.51 0.55 0.63 0.68 0.67 0.63 0.58 0.53 0.54 0.59 0.65 0.77 0.88 1.00 1.10 1.13 1.19 1.27 1.33 1.30 1.33 1.41 1.50 1.49 1.42 1.42
0.32 0.38 0.32 0.24 0.21 0.20 0.21 0.26 0.28 0.36 0.51 0.59 0.59 0.69 0.80 0.73 0.64 0.61 0.61 0.61 0.72 0.70 0.67 0.68 0.78 0.78 0.75 0.77 0.83 0.99 1.14 1.26 1.34 1.38 1.44 1.49 1.50 1.58 1.67 1.78 1.81 1.81 1.76 1.79
0.39 0.44 0.45 0.41 0.36 0.35 0.42 0.70 0.60 0.64 0.66 0.63 0.62 0.83 0.83 0.63 0.57 0.58 0.59 0.67 0.75 0.78 0.76 0.82 0.97 0.98 0.98 1.06 1.14 1.17 1.19 1.29 1.45 1.61 1.72 1.71 1.74 1.85 2.01 2.15 2.13 2.12 2.14 2.13
0.46 0.49 0.45 0.44 0.43 0.49 0.83 1.11 0.91 0.86 0.80 0.79 0.86 0.87 0.85 0.68 0.56 0.55 0.57 0.63 0.72 0.76 0.81 0.84 0.97 1.07 1.20 1.35 1.38 1.38 1.40 1.45 1.54 1.69 1.84 1.87 1.92 1.96 2.09 2.22 2.21 2.17 2.09 2.01
0.69 0.78 0.78 0.52 0.56 0.83 1.05 0.89 0.92 1.03 1.07 1.04 0.98 0.85 0.74 0.65 0.59 0.54 0.52 0.53 0.61 0.74 0.82 0.87 0.99 1.19 1.33 1.43 1.52 1.58 1.63 1.76 1.78 1.84 1.83 1.79 1.90 1.98 2.07 2.18 2.16 2.11 2.13 2.02
0.91 0.98 0.87 0.69 0.76 0.77 0.76 0.86 0.92 0.97 1.08 1.10 1.03 1.03 0.88 0.78 0.73 0.63 0.57 0.56 0.60 0.70 0.80 0.86 0.95 1.11 1.37 1.42 1.46 1.51 1.60 1.68 1.78 1.81 1.83 1.83 1.90 1.99 2.11 2.14 2.10 2.03 2.05 2.06
1.04 1.04 0.93 0.86 0.88 0.86 0.84 0.90 0.90 0.93 0.96 0.97 0.96 1.04 1.00 0.85 0.70 0.63 0.59 0.54 0.57 0.65 0.76 0.81 0.78 0.85 0.98 1.07 1.14 1.21 1.30 1.39 1.44 1.54 1.64 1.79 1.96 1.98 2.04 2.11 2.14 2.13 2.09 2.04
1.19 1.27 1.27 1.17 1.09 1.06 0.98 1.05 1.09 1.02 0.99 0.97 0.84 0.85 0.87 0.75 0.61 0.53 0.49 0.46 0.50 0.60 0.63 0.65 0.70 0.68 0.71 0.78 0.96 1.09 1.13 1.19 1.29 1.41 1.53 1.69 1.89 1.99 1.90 1.91 2.02 1.99 1.89 1.81
1.19 1.20 1.35 1.37 1.19 1.10 1.01 1.05 1.08 1.03 0.95 0.88 0.76 0.68 0.60 0.52 0.46 0.45 0.42 0.44 0.50 0.56 0.56 0.55 0.62 0.63 0.63 0.73 0.93 1.06 1.08 1.10 1.14 1.18 1.29 1.42 1.56 1.65 1.58 1.39 1.41 1.37 1.25 1.14
0.97 1.06 1.13 1.22 1.16 1.11 1.14 1.11 1.04 0.97 0.87 0.81 0.70 0.59 0.50 0.45 0.41 0.41 0.45 0.51 0.57 0.60 0.62 0.61 0.61 0.62 0.66 0.77 0.94 1.11 1.07 1.01 1.03 1.06 1.13 1.17 1.23 1.33 1.37 1.23 1.03 0.95 0.82 0.70
0.99 1.09 1.24 1.32 1.19 1.08 1.13 1.03 0.92 0.95 0.91 0.82 0.70 0.61 0.51 0.48 0.45 0.46 0.52 0.58 0.62 0.64 0.64 0.66 0.66 0.61 0.64 0.74 0.90 1.16 1.22 1.13 1.05 1.02 1.04 1.06 1.09 1.15 1.22 1.26 1.16 0.97 0.74 0.54
1.05 1.07 1.16 1.16 1.09 1.03 1.06 1.07 0.95 0.86 0.78 0.75 0.72 0.62 0.55 0.51 0.49 0.51 0.55 0.63 0.71 0.71 0.68 0.63 0.61 0.59 0.60 0.66 0.76 0.93 1.12 1.12 1.03 0.98 0.98 1.01 1.04 1.09 1.16 1.18 1.23 1.17 0.93 0.66
1.10 1.08 1.11 1.09 1.04 0.95 0.92 1.05 1.05 0.86 0.69 0.68 0.68 0.61 0.58 0.56 0.55 0.55 0.60 0.75 0.93 0.93 0.80 0.72 0.67 0.62 0.62 0.67 0.71 0.77 0.86 0.83 0.76 0.79 0.83 0.91 0.96 1.00 1.04 1.11 1.15 1.16 1.03 0.78
1.01 1.01 1.04 1.04 0.97 0.88 0.82 0.88 0.88 0.77 0.61 0.56 0.65 0.66 0.62 0.66 0.69 0.71 0.76 0.83 0.92 0.93 0.86 0.83 0.75 0.64 0.59 0.62 0.68 0.68 0.71 0.65 0.54 0.62 0.75 0.81 0.87 0.91 0.92 0.97 1.03 1.04 0.95 0.65
0.86 0.88 0.82 0.79 0.80 0.79 0.78 0.77 0.73 0.65 0.58 0.55 0.63 0.70 0.70 0.78 0.89 0.97 0.97 0.97 0.92 0.79 0.73 0.73 0.65 0.59 0.56 0.55 0.60 0.63 0.71 0.69 0.54 0.55 0.69 0.74 0.76 0.86 0.88 0.90 0.92 0.94 0.85 0.60
0.79 0.81 0.70 0.62 0.61 0.65 0.67 0.68 0.65 0.61 0.58 0.59 0.67 0.76 0.77 0.80 0.90 0.98 0.98 1.05 1.09 0.98 0.79 0.65 0.55 0.47 0.46 0.43 0.42 0.50 0.63 0.70 0.58 0.52 0.60 0.59 0.67 0.85 0.89 0.87 0.89 0.89 0.75 0.65
0.69 0.72 0.67 0.58 0.55 0.59 0.61 0.61 0.60 0.60 0.60 0.64 0.71 0.74 0.77 0.82 0.87 0.95 0.94 0.98 1.05 1.02 0.85 0.65 0.46 0.36 0.31 0.30 0.33 0.40 0.51 0.60 0.53 0.45 0.49 0.58 0.69 0.81 0.87 0.85 0.87 0.89 0.78 0.68
0.60 0.62 0.59 0.53 0.54 0.58 0.61 0.56 0.53 0.59 0.61 0.62 0.70 0.75 0.79 0.79 0.78 0.86 0.99 1.03 0.93 0.91 0.86 0.75 0.53 0.37 0.28 0.29 0.31 0.38 0.48 0.54 0.46 0.37 0.38 0.47 0.62 0.74 0.81 0.82 0.83 0.82 0.73 0.66
0.54 0.54 0.51 0.49 0.53 0.57 0.60 0.56 0.50 0.49 0.52 0.61 0.65 0.69 0.77 0.74 0.73 0.72 0.74 0.86 0.87 0.94 0.85 0.76 0.63 0.47 0.34 0.28 0.27 0.33 0.42 0.49 0.45 0.35 0.33 0.40 0.54 0.65 0.72 0.77 0.79 0.77 0.73 0.71
0.56 0.50 0.49 0.51 0.48 0.48 0.50 0.49 0.47 0.45 0.56 0.72 0.74 0.75 0.77 0.71 0.72 0.80 0.74 0.61 0.64 0.78 0.70 0.63 0.61 0.50 0.37 0.29 0.26 0.31 0.43 0.51 0.50 0.39 0.34 0.40 0.48 0.52 0.60 0.63 0.66 0.70 0.73 0.69
0.62 0.52 0.51 0.52 0.48 0.46 0.50 0.47 0.44 0.45 0.57 0.70 0.69 0.68 0.69 0.66 0.65 0.62 0.60 0.58 0.60 0.66 0.58 0.54 0.51 0.46 0.42 0.38 0.39 0.41 0.46 0.50 0.47 0.37 0.33 0.37 0.40 0.43 0.52 0.60 0.67 0.73 0.69 0.62
0.57 0.52 0.52 0.53 0.51 0.47 0.50 0.48 0.46 0.45 0.53 0.66 0.63 0.61 0.58 0.58 0.67 0.65 0.59 0.54 0.57 0.57 0.53 0.52 0.46 0.43 0.41 0.48 0.54 0.53 0.49 0.46 0.43 0.37 0.34 0.35 0.38 0.42 0.49 0.62 0.71 0.71 0.64 0.61
0.57 0.58 0.57 0.55 0.48 0.42 0.41 0.44 0.47 0.45 0.55 0.75 0.71 0.60 0.55 0.52 0.56 0.62 0.66 0.63 0.60 0.61 0.56 0.51 0.46 0.45 0.45 0.55 0.61 0.57 0.49 0.45 0.43 0.40 0.38 0.39 0.43 0.49 0.56 0.65 0.66 0.58 0.52 0.48
0.54 0.52 0.50 0.50 0.48 0.44 0.42 0.43 0.45 0.48 0.58 0.79 0.80 0.62 0.54 0.54 0.56 0.61 0.68 0.70 0.65 0.62 0.57 0.51 0.45 0.42 0.44 0.48 0.50 0.48 0.46 0.45 0.45 0.44 0.42 0.42 0.43 0.48 0.50 0.54 0.53 0.46 0.42 0.40